TimeCST,TemperatureF,Dew PointF,Humidity,Sea Level PressureIn,VisibilityMPH,Wind Direction,Wind SpeedMPH,Gust SpeedMPH,PrecipitationIn,Events,Conditions,WindDirDegrees,DateUTC
12:53 AM,-16.1,-20.0,82,30.50,10.0,Calm,Calm,-,N/A,,Clear,0,2014-01-28 06:53:00
1:53 AM,-15.0,-20.0,78,30.48,10.0,WNW,4.6,-,N/A,,Clear,300,2014-01-28 07:53:00
2:53 AM,-18.9,-22.0,86,30.49,10.0,SW,5.8,-,N/A,,Clear,230,2014-01-28 08:53:00
3:53 AM,-18.9,-24.0,78,30.46,10.0,WSW,4.6,-,N/A,,Clear,240,2014-01-28 09:53:00
4:53 AM,-20.0,-24.0,82,30.48,10.0,WSW,9.2,-,N/A,,Clear,240,2014-01-28 10:53:00
5:53 AM,-16.1,-20.0,82,30.47,10.0,West,8.1,-,N/A,,Clear,270,2014-01-28 11:53:00
6:53 AM,-20.0,-24.0,82,30.48,10.0,WSW,8.1,-,N/A,,Clear,250,2014-01-28 12:53:00
7:53 AM,-18.9,-22.0,86,30.47,10.0,SW,6.9,-,N/A,,Clear,230,2014-01-28 13:53:00
8:53 AM,-16.1,-20.0,82,30.48,10.0,SW,5.8,-,N/A,,Clear,220,2014-01-28 14:53:00
9:53 AM,-11.0,-16.1,78,30.47,10.0,WSW,8.1,-,N/A,,Clear,240,2014-01-28 15:53:00
10:53 AM,-6.0,-13.0,72,30.46,10.0,WSW,10.4,-,N/A,,Clear,250,2014-01-28 16:53:00
11:53 AM,-2.9,-11.0,68,30.43,10.0,West,11.5,-,N/A,,Clear,260,2014-01-28 17:53:00
12:53 PM,-2.0,-11.0,66,30.40,10.0,West,13.8,-,N/A,,Clear,270,2014-01-28 18:53:00
1:53 PM,-0.0,-9.9,63,30.37,10.0,West,18.4,-,N/A,,Clear,270,2014-01-28 19:53:00
2:53 PM,1.0,-9.0,63,30.36,10.0,West,15.0,-,N/A,,Clear,270,2014-01-28 20:53:00
3:53 PM,1.9,-7.1,66,30.35,10.0,West,10.4,-,N/A,,Clear,280,2014-01-28 21:53:00
4:53 PM,1.9,-7.1,66,30.35,10.0,West,9.2,-,N/A,,Clear,270,2014-01-28 22:53:00
5:53 PM,-0.9,-8.0,72,30.33,10.0,West,8.1,-,N/A,,Clear,260,2014-01-28 23:53:00
6:53 PM,-2.0,-9.0,72,30.33,10.0,West,8.1,-,N/A,,Clear,260,2014-01-29 00:53:00
7:53 PM,-6.0,-11.0,79,30.31,10.0,West,5.8,-,N/A,,Clear,270,2014-01-29 01:53:00
8:53 PM,-7.1,-11.9,79,30.31,10.0,SW,4.6,-,N/A,,Clear,220,2014-01-29 02:53:00
9:53 PM,-8.0,-11.9,83,30.30,10.0,SW,6.9,-,N/A,,Clear,220,2014-01-29 03:53:00
10:53 PM,-8.0,-11.0,86,30.29,10.0,WSW,4.6,-,N/A,,Clear,240,2014-01-29 04:53:00
11:53 PM,-7.1,-11.0,83,30.28,10.0,SW,6.9,-,N/A,,Clear,220,2014-01-29 05:53:00